Location: Gro�sch�nbrunn
(49.5760°N, 11.8868°E)
Time: 14:51:59
(UTC+00:00)

ISS - Pass Details

Date: 28 November 2020
Orbit: 418 x 419 km, 51.6° (Epoch: 17 January)

Event Time Altitude Azimuth Distance (km) Brightness Sun altitude
Rises 17:02:26 0° 268° (W) 2,364 1.7 -16.5°
Reaches altitude 10° 17:04:33 10° 272° (W) 1,500 0.2 -16.8°
Maximum altitude 17:07:53 61° 354° (N) 481 -3.6 -17.3°
Enters shadow 17:08:33 48° 45° (NE) 558 -3.5 -17.4°
